User: anonymous
Location: Cluny
(50.9333°N, 112.8167°W)
Time: 17:57:57
(UTC-06:00)
Language:

Cosmos 1743 Rocket - Orbit

View from above orbital plane
View from above orbital plane
View from above satellite
View from above satellite

Ground track
Ground track

The orbit data is extracted from the following two-line orbital elements,

1 16720U 86034B   14108.51298363  .00000600  00000-0  71268-4 0  4188
2 16720 082.5551 238.5637 0019106 314.9024 090.2417 14.82695297507972
Epoch (UTC): 18 April 2014 12:18:41
Eccentricity: 0.0019106
inclination: 82.5551°
perigee height: 607 km
apogee height: 634 km
right ascension of ascending node: 238.5637°
argument of perigee: 314.9024°
revolutions per day: 14.82695297
mean anomaly at epoch: 90.2417°
orbit number at epoch: 50797

The dashed part of the orbit path shows where the satellite is in the earth's shadow,  

DLR